Date,TemperatureHighF,TemperatureAvgF,TemperatureLowF,DewpointHighF,DewpointAvgF,DewpointLowF,HumidityHigh,HumidityAvg,HumidityLow,PressureMaxIn,PressureMinIn,WindSpeedMaxMPH,WindSpeedAvgMPH,GustSpeedMaxMPH,PrecipitationSumIn
2013-1-1,57,46,40,42,37,29,91,72,48,30.28,30.21,7,1,7,0.00
2013-1-2,57,46,39,42,37,33,89,71,51,30.25,30.14,3,0,4,0.00
2013-1-3,55,45,40,44,39,36,89,81,64,30.28,30.17,5,0,7,0.00
2013-1-4,59,47,40,44,40,37,89,76,55,30.30,30.18,4,0,5,0.00
2013-1-5,50,47,43,46,43,39,93,88,81,30.26,30.07,10,0,10,0.39
2013-1-6,55,47,44,48,44,42,93,89,75,30.20,30.06,6,0,7,0.08
2013-1-7,62,49,43,53,45,40,92,87,69,30.27,30.17,6,0,6,0.01
2013-1-8,56,48,43,49,44,41,92,87,73,30.25,30.13,5,0,5,0.00
2013-1-9,53,47,43,49,43,37,92,86,74,30.16,30.00,16,2,18,0.00
2013-1-10,57,45,39,42,37,32,86,72,52,30.19,30.08,8,0,8,0.00
2013-1-11,59,45,40,46,37,31,89,74,53,30.27,30.13,11,1,12,0.00
2013-1-12,54,43,37,38,34,24,89,71,34,30.26,30.15,8,0,8,0.00
2013-1-13,54,41,33,36,30,20,90,68,35,30.27,30.19,6,0,6,0.00
2013-1-14,56,45,37,35,26,19,73,47,31,30.41,30.23,8,1,9,0.00
2013-1-15,55,44,37,40,35,30,89,71,44,30.48,30.40,3,0,4,0.00
2013-1-16,61,45,36,43,36,32,88,72,45,30.44,30.26,5,0,5,0.00
2013-1-17,62,49,40,45,38,36,88,69,44,30.27,30.16,4,0,4,0.00
2013-1-18,64,51,43,43,38,32,80,62,40,30.24,30.14,4,0,5,0.00
2013-1-19,63,51,43,43,37,30,80,59,46,30.25,30.16,4,0,5,0.00
2013-1-20,66,53,44,42,36,30,76,53,35,30.23,30.14,4,0,6,0.00
2013-1-21,61,51,43,45,40,34,82,67,50,30.18,30.09,5,0,6,0.00
2013-1-22,58,52,46,45,42,39,80,71,57,30.12,30.01,6,1,7,0.00
2013-1-23,54,50,48,48,45,42,92,82,66,30.09,29.96,10,1,12,0.23
2013-1-24,57,52,48,53,49,46,93,91,84,30.20,30.07,3,0,3,0.00
2013-1-25,68,57,51,58,52,48,92,85,69,30.20,30.04,4,0,4,0.00
2013-1-26,63,53,46,51,44,37,91,73,43,30.08,29.99,11,1,16,0.00
2013-1-27,58,48,42,43,39,36,83,72,54,30.18,30.07,5,1,7,0.00
2013-1-28,62,50,43,46,42,37,87,74,53,30.29,30.16,7,0,8,0.00
2013-1-29,63,51,44,49,43,39,85,75,58,30.36,30.27,9,0,10,0.00
2013-1-30,66,55,46,50,45,42,88,72,50,30.35,30.26,8,1,8,0.00
2013-1-31,65,53,44,50,46,41,90,77,56,30.29,30.18,5,0,5,0.00
2013-2-1,66,54,46,51,46,43,89,75,55,30.22,30.12,6,0,6,0.00
2013-2-2,63,51,46,54,47,44,93,87,65,30.30,30.22,11,1,11,0.00
2013-2-3,60,51,45,50,46,41,91,83,63,30.26,30.15,6,1,9,0.00
2013-2-4,57,48,45,52,46,43,93,90,79,30.18,30.07,11,1,12,0.00
2013-2-5,60,50,44,51,45,41,90,82,68,30.16,30.08,13,1,13,0.00
2013-2-6,63,49,43,50,43,39,88,80,57,30.21,30.13,11,2,11,0.00
2013-2-7,55,48,43,47,43,39,91,83,60,30.18,30.00,19,5,20,0.25
2013-2-8,59,48,39,46,39,29,91,74,48,30.03,29.95,15,2,16,0.03
2013-2-9,61,50,44,41,31,26,69,49,28,30.09,30.00,11,1,12,0.00
2013-2-10,64,50,40,47,40,29,87,69,41,30.13,30.03,10,1,11,0.00
2013-2-11,68,53,46,45,38,29,90,59,25,30.23,30.07,11,2,14,0.00
2013-2-12,63,51,44,48,43,36,92,77,40,30.37,30.23,6,0,8,0.00
2013-2-13,60,50,45,50,44,41,92,81,56,30.35,30.22,14,2,14,0.00
2013-2-14,72,57,45,52,46,42,92,71,42,30.25,30.16,3,0,3,0.01
2013-2-15,72,60,51,49,45,41,77,58,38,30.27,30.20,3,0,3,0.00
2013-2-16,70,57,49,50,46,40,83,66,44,30.23,30.05,5,0,5,0.00
2013-2-17,61,52,43,49,44,41,91,77,54,30.06,29.97,11,2,12,0.00
2013-2-18,53,47,43,44,41,38,91,81,64,30.03,29.97,24,6,25,0.00
2013-2-19,50,44,39,43,39,33,90,82,62,29.98,29.76,29,4,38,0.32
2013-2-20,63,48,38,45,38,32,84,67,45,30.07,29.85,8,0,10,0.00
2013-2-21,64,51,42,43,38,33,84,64,36,30.17,30.05,11,0,11,0.00
2013-2-22,63,51,43,48,43,39,90,75,49,30.26,30.17,19,2,19,0.00
2013-2-23,64,52,44,46,39,29,91,64,37,30.26,30.17,15,1,15,0.00
2013-2-24,66,53,46,44,33,24,88,49,22,30.26,30.17,13,2,13,0.00
2013-2-25,65,52,44,50,44,40,91,77,51,30.27,30.17,8,2,9,0.00
2013-2-26,70,54,42,46,37,26,86,56,21,30.23,30.14,10,1,12,0.00
2013-2-27,69,54,45,50,43,35,86,67,32,30.37,30.21,14,1,14,0.00
2013-2-28,69,56,48,56,50,45,91,81,62,30.46,30.36,10,1,10,0.00
2013-3-1,74,59,48,56,50,45,92,75,45,30.43,30.24,6,0,6,0.00
2013-3-2,69,58,51,55,50,47,87,77,59,30.24,30.07,17,2,17,0.00
2013-3-3,64,52,46,52,47,42,91,84,61,30.10,30.04,24,8,24,0.00
2013-3-4,55,48,42,48,43,39,91,85,74,30.16,30.07,27,3,27,0.00
2013-3-5,56,48,42,46,43,39,90,81,69,30.08,29.83,37,11,37,0.12
2013-3-6,55,50,45,48,44,42,91,82,67,30.07,29.83,41,11,45,0.04
2013-3-7,56,48,43,48,43,41,91,85,69,30.00,29.87,12,0,12,0.01
2013-3-8,66,52,45,49,42,37,85,69,44,30.05,29.84,9,0,9,0.00
2013-3-9,71,55,43,50,43,38,86,66,38,30.31,30.05,10,1,10,0.00
2013-3-10,66,55,47,52,44,37,87,66,40,30.35,30.25,15,3,16,0.00
2013-3-11,72,55,46,52,45,40,90,70,40,30.26,30.11,15,2,15,0.00
2013-3-12,75,56,47,62,50,44,93,81,51,30.17,30.08,8,1,8,0.00
2013-3-13,79,61,48,59,52,46,92,73,38,30.17,30.07,5,0,5,0.00
2013-3-14,66,57,50,55,50,45,90,78,58,30.17,30.08,11,1,11,0.00
2013-3-15,70,56,48,55,48,44,89,75,54,30.14,30.04,15,1,15,0.00
2013-3-16,74,57,48,55,47,41,93,73,35,30.12,30.03,11,2,11,0.00
2013-3-17,66,56,48,49,44,40,84,66,45,30.15,30.04,14,2,14,0.00
2013-3-18,61,52,46,50,46,42,90,79,61,30.13,30.04,23,3,23,0.00
2013-3-19,60,52,47,51,46,42,88,79,62,30.14,30.06,18,3,18,0.06
2013-3-20,56,52,48,52,49,43,93,90,80,30.15,30.07,22,5,24,0.12
2013-3-21,66,52,42,49,44,40,93,75,49,30.14,30.02,12,1,12,0.01
2013-3-22,73,56,45,45,38,28,82,54,21,30.13,30.03,10,0,10,0.00
2013-3-23,68,55,46,44,37,27,82,54,24,30.15,30.05,14,2,14,0.00
2013-3-24,64,53,46,50,45,42,88,76,53,30.10,29.98,13,2,15,0.00
2013-3-25,57,49,44,48,44,41,90,82,71,30.03,29.94,19,5,19,0.00
2013-3-26,60,51,44,50,45,40,88,80,70,30.02,29.95,17,4,17,0.00
2013-3-27,57,52,48,52,49,44,93,88,82,30.03,29.96,14,4,14,0.00
2013-3-28,64,55,52,57,52,49,93,88,74,30.10,30.01,14,4,16,0.00
2013-3-29,78,58,50,60,51,47,90,80,49,30.09,30.02,17,2,18,0.01
2013-3-30,66,55,51,56,50,48,91,86,70,30.08,29.98,24,8,26,0.07
2013-3-31,63,56,52,56,52,49,89,86,75,30.08,30.00,21,6,22,0.06
2013-4-1,63,56,51,54,50,46,86,81,68,30.16,30.05,16,4,16,0.45
2013-4-2,65,54,48,56,49,44,86,83,70,30.20,30.09,12,2,15,0.00
2013-4-3,72,54,48,58,48,44,86,81,48,30.15,30.00,21,4,21,0.00
2013-4-4,58,54,49,52,48,44,83,80,77,30.13,29.99,25,7,25,0.56
2013-4-5,61,55,52,54,49,45,83,79,75,30.20,30.12,19,6,19,0.00
2013-4-6,60,54,51,54,47,44,83,76,72,30.21,30.14,19,7,20,0.01
2013-4-7,61,54,49,54,46,40,83,75,66,30.19,29.83,31,8,33,0.01
2013-4-8,72,55,44,47,40,36,84,59,36,30.03,29.80,7,2,21,0.01
2013-4-9,79,64,54,47,41,35,54,43,29,30.10,30.03,9,1,9,0.00
2013-4-10,86,70,60,60,50,40,72,51,34,30.18,30.03,15,1,16,0.00
2013-4-11,74,60,50,55,48,44,83,68,47,30.05,29.84,10,1,11,0.00
2013-4-12,70,56,47,53,48,44,87,74,45,29.93,29.83,18,3,18,0.00
2013-4-13,72,57,47,56,47,40,87,71,45,29.91,29.83,9,1,11,0.00
2013-4-14,72,55,46,48,42,37,89,63,37,29.94,29.86,16,2,18,0.00
2013-4-15,66,51,44,44,40,34,90,69,39,29.96,29.86,16,2,17,0.00
2013-4-16,72,56,44,40,36,32,73,49,28,30.17,29.96,5,1,7,0.00
2013-4-17,76,61,52,41,36,32,52,39,23,30.28,30.17,8,1,8,0.00
2013-4-18,78,62,53,44,39,32,61,43,24,30.27,30.19,16,2,17,0.00
2013-4-19,74,61,49,55,48,43,83,63,40,30.23,30.07,15,2,15,0.00
2013-4-20,79,63,49,51,47,42,86,57,27,30.11,29.98,16,2,16,0.00
2013-4-21,83,66,49,57,47,41,85,55,28,30.05,29.93,14,2,15,0.00
2013-4-22,90,70,60,54,49,41,68,49,19,29.97,29.85,15,2,16,0.00
2013-4-23,82,61,46,51,42,29,91,54,15,29.94,29.85,18,4,21,0.00
2013-4-24,58,51,46,50,47,44,92,85,74,29.96,29.84,27,10,28,0.00
2013-4-25,59,54,49,51,48,45,87,82,73,30.14,29.96,21,8,22,0.00
2013-4-26,63,52,47,52,47,43,89,83,69,30.24,30.13,16,3,16,0.00
2013-4-27,66,54,47,55,48,44,89,82,66,30.24,30.08,12,3,12,0.00
2013-4-28,77,61,47,59,51,44,89,72,49,30.08,29.88,11,3,11,0.00
2013-4-29,82,70,59,58,53,49,73,57,34,29.91,29.76,12,2,13,0.00
2013-4-30,80,65,52,53,48,27,85,57,22,29.86,29.78,15,2,16,0.00
2013-5-1,86,70,60,53,38,24,61,33,14,30.07,29.84,11,2,11,0.00
2013-5-2,93,74,60,47,38,24,58,29,12,30.15,30.07,12,1,13,0.00
2013-5-3,83,70,60,52,41,26,62,36,19,30.08,29.79,17,2,17,0.00
2013-5-4,74,61,53,54,47,33,88,63,31,29.79,29.57,34,9,36,0.00
2013-5-5,63,58,52,53,50,48,85,76,67,29.82,29.61,22,7,22,0.00
2013-5-6,68,60,54,55,52,50,87,75,56,29.97,29.82,20,5,21,0.00
2013-5-7,67,59,53,56,53,50,91,80,66,30.05,29.96,18,6,19,0.00
2013-5-8,59,54,50,52,50,46,92,86,76,30.14,30.04,21,6,24,0.00
2013-5-9,64,55,49,54,49,46,89,82,70,30.18,30.10,18,5,19,0.00
2013-5-10,67,56,50,57,51,46,90,83,69,30.19,30.11,16,3,17,0.00
2013-5-11,73,58,50,60,51,47,90,81,59,30.15,30.06,20,4,21,0.00
2013-5-12,75,61,51,62,53,48,89,77,59,30.15,30.03,11,2,11,0.00
2013-5-13,78,60,50,62,53,47,88,78,57,30.09,29.95,12,2,12,0.00
2013-5-14,71,59,51,56,51,47,87,76,58,29.99,29.92,15,3,16,0.00
2013-5-15,73,59,49,55,50,45,87,73,48,30.05,29.98,6,1,9,0.00
2013-5-16,66,58,53,57,52,46,85,79,67,30.03,29.97,20,3,22,0.00
2013-5-17,65,56,49,54,48,45,86,76,61,30.08,29.97,19,4,20,0.00
2013-5-18,78,61,50,57,50,45,87,69,43,30.14,30.07,11,1,12,0.00
2013-5-19,77,66,53,55,49,42,84,58,34,30.12,29.98,17,2,17,0.00
2013-5-20,86,67,53,57,49,42,81,56,21,30.01,29.92,15,2,16,0.00
2013-5-21,75,60,50,54,47,39,86,65,38,29.99,29.90,14,1,15,0.00
2013-5-22,70,57,47,43,38,31,72,51,29,30.02,29.90,6,1,8,0.00
2013-5-23,66,56,47,47,43,39,76,63,44,30.01,29.92,18,2,18,0.00
2013-5-24,67,56,48,49,46,43,86,69,48,30.01,29.94,18,2,19,0.00
2013-5-25,74,56,48,54,48,43,88,73,46,30.05,29.96,13,2,14,0.00
2013-5-26,63,56,51,54,51,48,91,82,72,30.13,30.04,24,5,24,0.00
2013-5-27,62,55,52,55,51,47,92,86,76,30.13,30.00,17,5,17,0.02
2013-5-28,72,60,54,60,54,50,92,83,64,30.01,29.92,11,2,13,0.01
2013-5-29,73,61,55,58,52,46,85,74,52,29.98,29.90,16,3,17,0.00
2013-5-30,78,61,50,54,49,46,87,68,37,29.99,29.93,11,1,11,0.00
2013-5-31,83,65,52,55,50,47,84,63,34,30.02,29.91,11,2,13,0.00
2013-6-1,83,68,54,59,52,48,79,59,33,29.93,29.77,11,2,11,0.00
2013-6-2,73,58,52,56,50,48,89,77,52,29.78,29.67,18,6,20,0.00
2013-6-3,60,55,51,53,50,48,90,84,75,29.87,29.72,29,14,29,0.00
2013-6-4,59,54,52,53,50,49,88,86,79,29.97,29.86,27,12,28,0.00
2013-6-5,60,54,50,53,49,45,86,83,77,30.01,29.94,27,11,27,0.00
2013-6-6,61,53,49,54,47,43,83,79,75,29.97,29.87,22,10,22,0.00
2013-6-7,80,62,51,63,51,43,80,70,51,29.90,29.73,18,4,18,0.00
2013-6-8,67,58,54,57,51,44,81,76,69,29.81,29.72,34,12,37,0.00
2013-6-9,59,55,54,53,46,42,79,71,62,29.90,29.81,27,14,30,0.00
2013-6-10,63,56,53,55,46,39,79,69,58,29.96,29.81,29,8,29,0.01
2013-6-11,68,59,53,58,50,41,78,71,61,30.00,29.90,17,4,17,0.00
2013-6-12,89,62,51,57,48,38,78,60,28,29.99,29.91,10,2,13,0.03
2013-6-13,82,64,53,53,49,42,84,60,27,30.09,29.99,10,1,11,0.00
2013-6-14,78,65,53,53,50,44,91,62,32,30.00,29.83,20,4,20,0.00
2013-6-15,62,55,50,54,52,50,98,89,74,30.00,29.83,25,8,25,0.00
2013-6-16,83,62,52,58,53,51,97,74,39,30.09,29.99,10,2,10,0.00
2013-6-17,78,62,54,59,54,49,94,76,48,30.08,30.02,12,2,13,0.00
2013-6-18,69,60,53,56,52,47,96,76,55,30.03,29.97,20,3,20,0.00
2013-6-19,74,63,54,53,49,44,81,61,43,30.06,29.99,14,2,14,0.00
2013-6-20,82,64,55,53,49,45,86,60,29,30.01,29.94,15,1,15,0.00
2013-6-21,78,62,53,54,52,45,95,71,33,29.98,29.91,12,2,12,0.00
2013-6-22,84,66,53,55,52,48,94,65,33,29.94,29.84,16,2,17,0.00
2013-6-23,63,58,56,60,57,54,100,96,72,29.87,29.82,20,6,20,0.00
2013-6-24,59,57,55,59,57,55,100,100,99,29.91,29.79,19,6,19,0.06
2013-6-25,64,61,58,64,61,58,100,100,99,29.99,29.89,25,7,25,0.47
2013-6-26,75,67,61,68,63,61,100,89,68,30.06,29.97,14,4,16,0.01
2013-6-27,89,71,58,68,61,57,100,74,42,30.08,30.01,8,1,8,0.00
2013-6-28,86,74,62,64,60,52,89,64,41,30.02,29.89,13,2,14,0.00
2013-6-29,86,73,60,62,58,51,88,60,37,29.91,29.79,10,2,10,0.00
2013-6-30,79,66,57,62,58,56,97,78,55,29.84,29.75,9,2,9,0.00
2013-7-1,80,66,56,62,58,56,99,78,48,29.85,29.79,16,4,18,0.00
2013-7-2,74,63,58,62,58,56,98,85,62,29.92,29.82,30,10,32,0.00
2013-7-3,80,66,58,65,59,57,100,82,51,29.92,29.76,25,6,25,0.00
2013-7-4,78,69,61,62,59,51,93,72,41,29.78,29.68,17,4,18,0.00
2013-7-5,66,60,55,56,54,51,93,82,66,29.76,29.70,24,7,25,0.00
2013-7-6,61,56,54,56,54,52,98,92,81,29.82,29.75,26,13,28,0.00
2013-7-7,64,58,54,57,55,53,98,91,78,29.87,29.79,22,11,29,0.00
2013-7-8,65,58,54,58,56,54,99,91,79,29.98,29.87,20,9,20,0.00
2013-7-9,78,63,54,62,56,53,100,82,49,30.04,29.93,16,3,16,0.00
2013-7-10,66,57,53,58,55,53,99,93,73,29.98,29.90,30,10,31,0.00
2013-7-11,62,55,52,57,54,52,100,96,82,29.95,29.88,26,11,28,0.00
2013-7-12,62,57,53,57,54,53,98,92,80,29.95,29.88,23,8,23,0.00
2013-7-13,69,59,53,57,55,53,98,87,62,29.97,29.90,18,7,19,0.00
2013-7-14,63,56,53,57,54,53,99,93,79,30.00,29.91,22,10,23,0.00
2013-7-15,62,55,51,56,54,51,100,96,81,29.93,29.85,27,10,27,0.00
2013-7-16,60,57,54,59,56,53,99,95,89,30.04,29.87,17,6,17,0.00
2013-7-17,68,60,55,60,57,54,99,89,74,30.10,30.03,19,4,21,0.00
2013-7-18,66,58,54,59,56,54,100,92,75,30.06,29.95,16,6,18,0.00
2013-7-19,67,58,54,60,56,54,100,92,73,29.96,29.83,18,8,18,0.00
2013-7-20,65,56,53,58,55,53,100,94,76,29.86,29.75,25,10,26,0.00
2013-7-21,64,56,53,58,55,53,100,94,79,29.89,29.78,30,11,31,0.00
2013-7-22,66,60,54,61,58,54,100,94,81,29.97,29.88,25,10,25,0.00
2013-7-23,67,62,57,61,58,56,98,89,80,30.02,29.94,22,8,23,0.00
2013-7-24,72,62,56,61,58,55,100,87,65,30.00,29.91,15,5,17,0.00
2013-7-25,66,58,54,58,55,54,100,93,76,30.03,29.93,19,9,22,0.00
2013-7-26,65,57,54,60,56,54,100,96,82,30.11,30.01,23,11,25,0.00
2013-7-27,63,57,54,59,56,54,100,97,83,30.04,29.88,26,11,27,0.00
2013-7-28,61,56,54,57,55,53,100,96,86,29.89,29.82,33,13,33,0.00
2013-7-29,60,57,54,57,55,54,98,95,88,30.02,29.85,24,12,26,0.00
2013-7-30,63,57,53,58,55,53,100,95,84,30.11,30.02,26,10,28,0.00
2013-7-31,69,59,53,59,56,53,100,90,69,30.10,30.01,21,7,23,0.00
2013-8-1,71,61,53,58,56,52,98,85,63,30.06,29.96,20,4,21,0.00
2013-8-2,69,59,53,58,55,53,100,88,64,29.98,29.90,19,6,19,0.00
2013-8-3,64,56,53,58,55,53,100,95,81,29.98,29.92,22,10,23,0.00
2013-8-4,61,56,53,56,54,53,100,96,83,30.02,29.96,25,10,25,0.00
2013-8-5,62,56,53,57,54,52,100,95,82,30.04,29.94,25,9,27,0.00
2013-8-6,63,57,53,58,56,53,100,94,81,30.05,29.98,25,9,27,0.00
2013-8-7,63,59,56,59,58,56,100,96,86,30.11,30.04,16,6,17,0.00
2013-8-8,68,60,55,60,58,54,100,91,70,30.05,29.94,20,5,21,0.01
2013-8-9,66,59,54,59,56,54,99,93,79,30.00,29.92,23,8,25,0.00
2013-8-10,66,60,57,60,58,56,99,92,78,30.06,30.00,21,6,22,0.00
2013-8-11,67,59,55,60,57,55,100,94,78,30.03,29.94,17,6,17,0.00
2013-8-12,67,59,55,60,57,55,100,93,75,30.01,29.95,17,6,17,0.00
2013-8-13,79,65,56,62,58,55,99,79,49,30.00,29.91,17,4,18,0.00
2013-8-14,80,65,55,63,58,55,99,82,53,29.98,29.90,12,3,13,0.00
2013-8-15,78,67,60,67,63,60,100,89,68,29.97,29.91,14,2,14,0.00
2013-8-16,81,67,59,64,60,57,100,82,53,29.99,29.93,14,3,15,0.00
2013-8-17,85,64,58,64,59,57,98,85,49,29.99,29.86,12,3,14,0.00
2013-8-18,84,68,57,64,60,56,100,77,47,29.89,29.78,14,4,15,0.00
2013-8-19,72,64,58,61,59,57,99,84,66,29.90,29.78,27,8,28,0.00
2013-8-20,66,60,58,61,59,57,100,96,83,29.90,29.83,28,13,31,0.00
2013-8-21,68,61,58,59,57,56,98,89,73,29.95,29.87,25,9,25,0.00
2013-8-22,68,61,57,58,57,55,96,87,72,29.98,29.89,22,8,22,0.00
2013-8-23,73,62,56,61,58,55,98,87,66,29.93,29.80,17,4,17,0.00
2013-8-24,74,63,56,62,59,55,98,87,66,29.89,29.82,17,3,17,0.00
2013-8-25,70,65,60,65,62,60,99,92,83,29.94,29.88,22,6,23,0.00
2013-8-26,80,66,60,63,59,55,98,82,46,30.01,29.89,10,2,11,0.00
2013-8-27,79,64,57,63,59,57,99,85,58,29.90,29.82,13,2,14,0.00
2013-8-28,76,65,58,67,62,57,99,89,72,29.94,29.84,15,3,15,0.00
2013-8-29,79,67,61,66,63,60,100,88,66,30.05,29.94,12,3,13,0.00
2013-8-30,90,70,60,67,62,58,100,79,44,30.04,29.91,10,2,10,0.00
2013-8-31,78,66,58,63,60,58,99,84,58,29.97,29.88,13,2,13,0.00
2013-9-1,74,65,57,64,60,56,98,85,65,29.94,29.88,14,3,15,0.00
2013-9-2,74,67,62,67,63,60,98,88,74,29.95,29.88,21,4,21,0.00
2013-9-3,75,66,59,64,60,55,95,83,64,30.00,29.92,20,3,20,0.00
2013-9-4,82,67,59,63,60,58,97,82,47,30.03,29.93,13,2,13,0.00
2013-9-5,83,68,59,62,59,55,98,74,41,30.00,29.93,10,1,11,0.00
2013-9-6,96,75,60,61,54,38,96,56,15,29.98,29.82,8,0,8,0.00
2013-9-7,89,74,60,61,55,48,87,53,31,29.86,29.79,16,3,17,0.00
2013-9-8,80,65,57,63,58,56,100,80,48,29.87,29.75,14,3,15,0.00
2013-9-9,79,64,56,61,58,54,98,82,51,29.81,29.70,16,4,17,0.00
2013-9-10,64,61,59,61,60,58,100,97,92,29.90,29.73,28,13,29,0.00
2013-9-11,68,63,61,62,60,60,99,91,80,30.00,29.90,20,7,21,0.00
2013-9-12,73,64,60,64,62,59,100,92,73,29.98,29.88,15,2,15,0.00
2013-9-13,80,63,57,64,59,56,99,87,56,29.90,29.75,14,2,15,0.00
2013-9-14,79,63,56,63,58,56,98,86,57,29.82,29.73,8,1,8,0.00
2013-9-15,74,63,55,62,59,55,98,87,63,29.86,29.76,19,3,19,0.00
2013-9-16,81,65,58,63,60,57,100,85,52,29.89,29.78,11,2,13,0.00
2013-9-17,81,67,58,60,56,53,95,70,40,29.88,29.80,12,1,12,0.00
2013-9-18,81,67,57,59,53,47,93,65,35,29.91,29.81,17,2,17,0.00
2013-9-19,83,68,56,59,52,43,93,60,27,29.85,29.74,13,2,14,0.00
2013-9-20,70,61,55,63,58,51,97,91,73,29.85,29.76,18,5,19,0.00
2013-9-21,66,62,58,63,60,55,100,94,78,29.89,29.79,20,7,20,0.39
2013-9-22,74,63,56,60,56,53,96,79,53,30.00,29.89,15,1,15,0.00
2013-9-23,81,67,58,64,59,53,93,75,54,30.02,29.93,13,1,14,0.00
2013-9-24,80,66,59,60,55,48,94,69,42,29.99,29.89,18,1,20,0.00
2013-9-25,76,63,57,51,48,45,76,60,37,29.92,29.81,13,1,14,0.00
2013-9-26,76,64,55,50,42,38,65,46,29,29.98,29.83,13,1,13,0.00
2013-9-27,81,67,58,52,40,34,83,38,22,30.09,29.98,14,1,16,0.00
2013-9-28,78,65,57,57,50,38,93,63,25,30.08,30.00,14,3,15,0.00
2013-9-29,71,63,57,64,60,56,99,91,77,30.10,30.05,15,4,16,0.00
2013-9-30,67,62,59,65,61,51,100,97,75,30.07,29.97,14,5,14,0.01
2013-10-1,73,62,55,56,52,48,86,69,50,30.01,29.92,10,2,11,0.00
2013-10-2,78,64,56,58,51,42,89,67,36,30.01,29.92,13,1,13,0.00
2013-10-3,81,65,54,47,40,34,61,42,20,30.07,29.95,11,1,11,0.00
2013-10-4,86,72,63,43,35,26,44,27,12,30.08,29.93,12,1,15,0.00
2013-10-5,85,72,63,44,33,28,34,24,14,30.18,30.08,3,0,3,0.00
2013-10-6,84,69,58,43,36,29,47,30,16,30.11,29.99,12,1,12,0.00
2013-10-7,78,68,56,53,42,33,89,40,24,29.99,29.86,12,2,14,0.00
2013-10-8,70,60,53,56,51,45,93,76,45,29.90,29.70,17,3,17,0.00
2013-10-9,69,60,50,52,47,41,94,67,40,29.76,29.63,15,2,17,0.00
2013-10-10,63,56,51,53,50,38,97,82,41,30.00,29.76,26,8,26,0.00
2013-10-11,62,54,50,52,51,49,98,89,71,30.10,29.98,15,4,16,0.00
2013-10-12,66,55,50,54,51,48,99,86,61,30.01,29.90,17,3,21,0.00
2013-10-13,74,61,53,56,49,40,96,67,33,30.06,29.92,16,2,16,0.00
2013-10-14,82,66,54,53,44,36,88,50,22,30.12,30.00,6,0,6,0.00
2013-10-15,85,68,54,48,40,32,73,39,17,30.04,29.95,6,0,6,0.00
2013-10-16,82,68,58,51,40,34,69,38,19,30.08,29.98,11,2,11,0.00
2013-10-17,84,68,57,50,40,33,65,38,20,30.07,29.96,12,2,12,0.00
2013-10-18,76,62,52,54,49,42,92,64,36,30.05,29.97,6,1,6,0.00
2013-10-19,86,64,53,54,49,40,92,63,23,30.07,29.99,7,0,9,0.00
2013-10-20,70,58,50,56,51,48,98,80,53,30.01,29.91,9,2,9,0.00
2013-10-21,66,54,49,54,51,48,99,89,63,30.01,29.92,8,2,9,0.00
2013-10-22,70,55,49,58,52,48,99,90,59,30.02,29.92,7,1,7,0.00
2013-10-23,64,53,48,55,51,48,99,93,70,29.98,29.90,14,2,15,0.01
2013-10-24,62,53,48,54,50,48,99,92,72,30.11,29.98,15,4,15,0.00
2013-10-25,72,58,49,57,52,48,98,82,57,30.17,30.08,6,0,7,0.00
2013-10-26,81,62,52,56,51,47,96,72,36,30.14,30.01,6,1,7,0.00
2013-10-27,59,53,49,53,50,48,99,91,75,30.02,29.66,31,9,31,0.00
2013-10-28,62,55,50,52,49,45,94,80,62,29.84,29.67,15,3,16,0.00
2013-10-29,61,55,51,52,50,47,96,85,68,30.05,29.84,14,4,14,0.00
2013-10-30,67,56,50,56,50,41,98,80,55,30.16,30.05,12,1,12,0.00
2013-10-31,72,60,51,55,48,41,93,68,41,30.18,30.07,11,1,11,0.00
2013-11-1,75,63,52,54,49,45,89,63,38,30.14,30.00,4,0,4,0.00
2013-11-2,72,60,52,56,51,45,93,72,55,30.02,29.90,8,1,9,0.00
2013-11-3,66,56,50,47,40,34,73,55,34,30.05,29.92,8,1,9,0.00
2013-11-4,75,60,49,40,36,30,69,42,22,30.07,29.92,6,0,7,0.00
2013-11-5,77,63,54,44,37,33,64,38,22,30.21,30.05,10,1,11,0.00
2013-11-6,71,62,53,48,43,38,68,51,38,30.25,30.15,5,0,5,0.00
2013-11-7,73,63,54,54,44,39,93,53,32,30.16,30.07,14,2,14,0.00
2013-11-8,77,59,50,58,51,45,99,78,41,30.08,29.95,12,1,12,0.00
2013-11-9,71,53,49,52,49,48,96,87,48,30.02,29.97,4,1,4,0.00
2013-11-10,62,55,51,54,52,50,98,90,73,30.12,30.03,15,6,16,0.01
2013-11-11,67,57,50,56,51,46,98,83,61,30.17,30.07,9,1,10,0.00
2013-11-12,75,62,56,55,52,48,86,69,44,30.27,30.16,9,0,9,0.00
2013-11-13,72,61,53,59,55,52,97,81,54,30.24,30.09,11,1,11,0.00
2013-11-14,62,56,52,57,51,36,99,86,40,30.10,29.87,11,2,11,0.00
2013-11-15,64,56,49,50,45,38,95,69,41,29.88,29.72,15,2,16,0.00
2013-11-16,69,55,47,53,49,45,97,82,54,29.92,29.76,11,1,12,0.00
2013-11-17,60,53,48,53,49,46,99,88,71,30.09,29.92,12,2,13,0.00
2013-11-18,57,52,48,52,50,46,97,91,81,30.16,30.08,13,4,13,0.00
2013-11-19,58,55,53,58,54,50,99,96,88,30.11,29.93,20,5,24,0.61
2013-11-20,59,56,50,59,56,50,100,100,99,29.94,29.84,13,4,18,0.54
2013-11-21,66,56,50,54,43,28,100,69,33,29.98,29.89,13,1,13,0.01
2013-11-22,73,62,55,35,28,19,41,28,15,30.01,29.89,14,1,18,0.00
2013-11-23,70,57,49,52,38,28,97,53,26,30.10,29.95,14,2,14,0.00
2013-11-24,64,54,46,52,46,40,98,77,47,30.25,30.09,6,1,7,0.00
2013-11-25,64,53,46,51,47,44,95,80,58,30.33,30.25,4,0,5,0.00
2013-11-26,64,54,48,49,46,44,88,76,54,30.27,30.04,4,0,4,0.00
2013-11-27,66,56,50,52,47,45,85,74,54,30.04,29.85,5,0,6,0.00
2013-11-28,70,59,51,49,45,40,78,60,38,30.07,29.87,6,0,6,0.00
2013-11-29,75,58,50,51,47,42,92,68,40,30.21,30.07,6,0,6,0.00
2013-11-30,74,58,51,53,49,44,93,74,38,30.27,30.19,4,0,4,0.00
2013-12-1,73,59,50,53,48,44,93,70,39,30.34,30.22,4,1,4,0.00
2013-12-2,64,56,49,55,51,46,96,85,68,30.23,29.95,8,1,8,0.00
2013-12-3,59,52,46,54,38,28,95,62,46,29.95,29.84,13,1,17,0.00
2013-12-4,57,46,38,36,28,23,74,50,30,30.09,29.94,7,0,7,0.00
2013-12-5,56,43,36,34,29,16,86,60,22,30.17,30.08,6,1,6,0.00
2013-12-6,51,45,37,50,40,30,98,83,57,30.20,29.91,37,6,37,0.29
2013-12-7,54,43,37,47,34,27,98,72,41,30.25,29.93,9,0,9,0.00
2013-12-8,50,40,34,35,29,24,92,68,40,30.33,30.23,4,0,5,0.00
2013-12-9,55,42,34,35,27,20,82,59,28,30.42,30.32,4,0,5,0.00
2013-12-10,56,45,37,39,33,29,87,63,40,30.40,30.21,6,0,6,0.00
2013-12-11,59,47,39,40,36,32,88,66,39,30.25,30.17,4,0,5,0.00
2013-12-12,59,49,43,42,37,32,80,65,37,30.27,30.17,6,0,6,0.00
2013-12-13,64,50,41,47,40,32,98,73,31,30.34,30.23,2,0,2,0.00
2013-12-14,63,52,43,46,41,37,91,70,46,30.40,30.31,4,0,4,0.00
2013-12-15,62,51,44,45,41,39,84,69,48,30.36,30.24,5,0,6,0.00
2013-12-16,67,55,47,46,41,38,84,61,38,30.24,30.12,8,0,8,0.00
2013-12-17,63,55,50,46,42,38,78,62,49,30.17,30.02,6,0,7,0.00
2013-12-18,60,52,49,50,45,40,92,76,60,30.03,29.76,20,2,20,0.00
2013-12-19,67,53,46,44,36,18,83,55,29,29.94,29.72,9,0,10,0.00
2013-12-20,66,53,46,44,30,15,76,43,27,30.02,29.93,7,1,7,0.00
2013-12-21,67,55,47,53,48,42,97,80,61,30.08,29.96,6,0,6,0.00
2013-12-22,63,55,48,49,43,39,93,65,46,30.28,30.08,5,0,5,0.00
2013-12-23,65,54,46,46,42,40,83,65,46,30.39,30.28,4,0,4,0.00
2013-12-24,72,58,48,49,44,40,88,61,39,30.34,30.20,5,0,5,0.00
2013-12-25,66,55,46,48,44,42,91,67,49,30.29,30.19,5,0,5,0.00
2013-12-26,64,55,47,46,41,36,83,61,42,30.25,30.17,8,0,8,0.00
2013-12-27,58,53,48,44,41,37,77,64,51,30.23,30.12,6,1,7,0.00
2013-12-28,69,55,44,42,37,29,87,53,29,30.15,30.03,5,0,5,0.00
2013-12-29,67,57,49,38,32,25,61,39,25,30.17,30.08,5,0,5,0.00
2013-12-30,65,52,47,48,42,38,93,68,42,30.25,30.16,6,0,7,0.00
2013-12-31,65,52,45,46,40,35,93,67,35,30.27,30.16,4,0,4,0.00
2014-1-1,64,54,45,44,39,32,87,59,34,30.22,30.13,4,1,5,0.00
2014-1-2,67,56,48,43,39,37,68,53,35,30.17,30.05,4,0,5,0.00